Location: Buckenweiler
(49.0667°N, 10.2500°E)
Time: 02:23:04
(UTC+00:00)

Cosmos 540 Rocket - Pass Details

Date: 18 January 2026
Orbit: 736 x 746 km, 74.1° (Epoch: 6 February)

Event Time Altitude Azimuth Distance (km) Brightness Sun altitude
Exits shadow 06:20:14 - 324° (NW) 2,696 5.8 -7.5°
Reaches altitude 10° 06:21:32 10° 317° (NW) 2,251 5.4 -7.3°
Maximum altitude 06:25:50 28° 260° (W) 1,355 4.4 -6.6°
Drops below altitude 10° 06:30:07 10° 202° (SSW) 2,240 6.0 -6.0°
Sets 06:32:43 0° 191° (S) 3,159 6.9 -5.6°
